[[{"header":{"parameterUnit":"m.s-1","parameterCategory":1,"la1":30.2991,"la2":30.254,"lo1":-89.0895,"lo2":-89.0444,"dy":0.0017,"dx":0.0017,"nx":28,"ny":28,"refTime":"2025-09-07T03:00:00:Z","depth":0,"parameterNumber":2,"parameterNumberName":"U-component_of_WINDS"},"data":[0,0,0,0,0,0,0,0,0,0,0,0,0,0,0,0,0,0,0,0,0,0,0,0,0,0,0,0,0,0,0,0,0,0,0,0,0,0,0,0,0,0,0,0,0,0,0,0,0,0,0,0,0,0,0,0,0,0,-1.1753,-1.1754,0,-1.1762,-1.1762,-1.1763,-1.176,-1.1759,-1.1759,-1.1759,-1.1771,-1.1771,-1.1771,0,0,0,0,0,0,0,0,0,0,0,0,0,-1.1737,-1.1737,-1.1753,-1.1754,-1.1754,-1.1762,-1.1763,-1.1763,-1.176,-1.1759,-1.1759,-1.1759,-1.177,-1.1771,-1.1772,0,0,0,0,0,0,0,0,0,0,0,0,0,-1.1745,-1.1738,-1.1753,-1.1753,-1.1753,-1.1762,-1.1763,-1.1763,-1.176,-1.1759,-1.1759,-1.1759,-1.177,-1.1771,-1.1772,-1.1782,0,0,-1.1774,-1.1774,0,0,0,0,0,0,0,0,-1.1745,-1.1746,-1.1753,-1.1753,-1.1753,-1.176,-1.1761,-1.1769,-1.176,-1.1757,-1.1759,-1.1759,-1.1767,-1.1768,-1.1771,-1.1783,-1.1783,-1.1774,-1.1774,-1.1775,-1.1775,0,0,0,0,0,0,0,-1.1744,-1.1745,-1.1757,-1.1753,-1.1753,-1.1754,-1.1755,-1.1763,-1.1764,-1.1758,-1.1757,-1.1758,-1.1767,-1.177,-1.1771,-1.1783,-1.1774,-1.1775,-1.1775,-1.1775,-1.1807,-1.1807,0,0,0,0,0,0,-1.1743,-1.1745,-1.1757,-1.1757,-1.1748,-1.1754,-1.1755,-1.1758,-1.1764,-1.1764,-1.1759,-1.1758,-1.1769,-1.177,-1.1771,-1.1785,-1.1775,-1.1775,-1.1776,-1.1806,-1.1807,-1.1807,0,0,0,0,0,0,-1.1743,-1.1744,-1.1756,-1.1751,-1.1753,-1.1755,-1.1758,-1.1758,-1.1761,-1.1765,-1.1765,-1.1761,-1.1769,-1.177,-1.178,-1.1785,-1.1776,-1.1776,-1.1806,-1.1806,-1.1807,-1.1812,0,0,0,0,0,0,-1.1742,-1.1744,-1.1747,-1.1751,-1.1753,-1.1764,-1.1758,-1.1759,-1.1762,-1.1761,-1.1767,-1.1767,-1.1769,-1.1779,-1.178,-1.1786,-1.1777,-1.1805,-1.1806,-1.1807,-1.1811,-1.1813,-1.1814,0,0,0,0,0,-1.1742,-1.1748,-1.1747,-1.1749,-1.1757,-1.1764,-1.1765,-1.1765,-1.1762,-1.1766,-1.1769,-1.1767,-1.1785,-1.178,-1.1782,-1.1788,-1.1805,-1.1806,-1.1807,-1.1811,-1.1813,-1.1814,0,0,0,0,0,0,-1.1745,-1.1749,-1.1748,-1.1755,-1.1759,-1.1763,-1.1768,-1.1767,-1.1772,-1.1772,-1.1773,-1.1774,-1.1784,-1.1787,-1.1781,-1.1799,-1.1795,-1.1796,-1.1797,-1.1799,-1.18,-1.1799,-1.1778,0,0,0,0,0,-1.1747,-1.1751,-1.1755,-1.1761,-1.1763,-1.1765,-1.1769,-1.1769,-1.1773,-1.1775,-1.1778,-1.1783,-1.179,-1.1795,-1.1801,-1.1812,-1.1814,-1.1818,-1.1819,-1.182,-1.1821,-1.1829,-1.1831,-1.181,-1.181,-1.181,0,0,-1.175,-1.1753,-1.1756,-1.1762,-1.1765,-1.1771,-1.1767,-1.1773,-1.1778,-1.1776,-1.1785,-1.1788,-1.1794,-1.1805,-1.181,-1.1808,-1.1827,-1.1821,-1.1822,-1.1822,-1.183,-1.1832,-1.1834,-1.1811,-1.1811,-1.1811,0,0,-1.176,-1.1762,-1.1768,-1.1771,-1.1776,-1.1777,-1.1779,-1.1784,-1.1785,-1.1795,-1.1794,-1.1801,-1.1812,-1.1816,-1.182,-1.1834,-1.1833,-1.1836,-1.1842,-1.185,-1.1852,-1.1853,-1.1859,-1.1861,-1.1837,-1.1837,-1.1837,0,-1.1763,-1.1771,-1.1771,-1.1778,-1.1782,-1.178,-1.1788,-1.1791,-1.1798,-1.1801,-1.1798,-1.1814,-1.1817,-1.183,-1.1834,-1.1836,-1.184,-1.1835,-1.1851,-1.1853,-1.1854,-1.186,-1.1862,-1.1838,-1.1837,-1.1837,-1.1837,0,-1.1776,-1.1782,-1.1787,-1.1793,-1.1798,-1.1804,-1.1807,-1.1812,-1.1812,-1.1814,-1.1825,-1.183,-1.1838,-1.1841,-1.1841,-1.1855,-1.1853,-1.1851,-1.1846,-1.1857,-1.1862,-1.1864,-1.1838,-1.1838,-1.1838,-1.1838,0,0,-1.1787,-1.1794,-1.1796,-1.18,-1.1806,-1.1811,-1.1819,-1.1826,-1.183,-1.1836,-1.1843,-1.1854,-1.1852,-1.1857,-1.1858,-1.1865,-1.1877,-1.1862,-1.1863,-1.1866,-1.1894,-1.1896,-1.1898,-1.1877,-1.1877,-1.1878,-1.1894,0,-1.1797,-1.181,-1.1811,-1.1823,-1.1829,-1.1829,-1.1836,-1.1841,-1.1844,-1.1851,-1.1855,-1.1863,-1.186,-1.1863,-1.187,-1.1874,-1.1883,-1.1873,-1.1885,-1.1886,-1.1884,-1.1901,-1.1902,-1.1917,-1.1896,-1.1896,-1.1896,0,-1.181,-1.1816,-1.1828,-1.1835,-1.1838,-1.1844,-1.1852,-1.1858,-1.1865,-1.1867,-1.1873,-1.1874,-1.1884,-1.1879,-1.1893,-1.1887,-1.1892,-1.1896,-1.1896,-1.1897,-1.1892,-1.1903,-1.1921,-1.1924,-1.1899,-1.1899,-1.1899,0,-1.1818,-1.1829,-1.1838,-1.1841,-1.1848,-1.1853,-1.1857,-1.1863,-1.1868,-1.1876,-1.1879,-1.1888,-1.1893,-1.1901,-1.1905,-1.1901,-1.192,-1.1915,-1.1923,-1.1923,-1.1927,-1.1927,-1.1947,-1.193,-1.193,-1.193,-1.193,0,-1.1829,-1.1837,-1.1841,-1.1847,-1.1856,-1.1859,-1.1868,-1.1872,-1.1878,-1.1886,-1.1887,-1.1894,-1.1899,-1.1908,-1.1911,-1.1924,-1.1926,-1.1929,-1.193,-1.1929,-1.1929,-1.1933,-1.1932,-1.193,-1.193,-1.193,-1.193,0,-1.1839,-1.1842,-1.1852,-1.1859,-1.1861,-1.1867,-1.1874,-1.1881,-1.1884,-1.1894,-1.1896,-1.1903,-1.1913,-1.1918,-1.1931,-1.1934,-1.1948,-1.1948,-1.1946,-1.1946,-1.1954,-1.1954,-1.1978,-1.1982,-1.1962,-1.1962,-1.1962,0,-1.1846,-1.1852,-1.186,-1.1864,-1.1868,-1.1876,-1.1881,-1.1884,-1.189,-1.19,-1.1905,-1.1916,-1.1924,-1.1942,-1.1948,-1.1959,-1.196,-1.1967,-1.1961,-1.1961,-1.1961,-1.1961,-1.1962,-1.1968,-1.1969,-1.1969,-1.1969,0,-1.1859,-1.186,-1.1867,-1.1875,-1.1881,-1.1888,-1.1895,-1.1899,-1.1904,-1.1911,-1.1921,-1.1928,-1.1941,-1.1953,-1.1964,-1.197,-1.1971,-1.1971,-1.1974,-1.1973,-1.1972,-1.1974,-1.1949,-1.197,-1.197,-1.197,-1.197,-1.197,-1.1868,-1.1874,-1.188,-1.1888,-1.1894,-1.1901,-1.1907,-1.1912,-1.1921,-1.1931,-1.1933,-1.1945,-1.1954,-1.197,-1.1976,-1.1986,-1.1985,-1.1988,-1.1989,-1.199,-1.1991,-1.197,-1.1988,-1.1988,-1.1988,-1.1988,-1.1988,0,-1.1881,-1.1886,-1.1893,-1.1902,-1.191,-1.1909,-1.1917,-1.1924,-1.1934,-1.1942,-1.195,-1.1964,-1.1975,-1.1983,-1.1995,-1.2002,-1.2003,-1.2005,-1.2005,-1.2007,-1.1991,-1.1988,-1.2004,-1.2004,-1.2004,-1.2004,-1.2004,-1.2004,-1.1889,-1.1899,-1.1902,-1.1916,-1.1921,-1.1931,-1.1936,-1.1943,-1.195,-1.1964,-1.1973,-1.1978,-1.1987,-1.2,-1.2011,-1.2014,-1.2019,-1.2021,-1.2023,-1.2009,-1.2007,-1.2006,-1.2003,-1.2022,-1.2022,-1.2038,-1.2038,-1.2038]},{"header":{"parameterUnit":"m.s-1","parameterCategory":1,"la1":30.2991,"la2":30.254,"lo1":-89.0895,"lo2":-89.0444,"dy":0.0017,"dx":0.0017,"nx":28,"ny":28,"refTime":"2025-09-07T03:00:00:Z","depth":0,"parameterNumber":3,"parameterNumberName":"V-component_of_WINDS"},"data":[0,0,0,0,0,0,0,0,0,0,0,0,0,0,0,0,0,0,0,0,0,0,0,0,0,0,0,0,0,0,0,0,0,0,0,0,0,0,0,0,0,0,0,0,0,0,0,0,0,0,0,0,0,0,0,0,0,0,0.198,0.1982,0,0.2201,0.2203,0.2206,0.226,0.2259,0.2257,0.2256,0.2487,0.2494,0.2501,0,0,0,0,0,0,0,0,0,0,0,0,0,0.1606,0.1612,0.1979,0.1982,0.1985,0.22,0.2203,0.2206,0.226,0.2259,0.2257,0.2255,0.2484,0.2493,0.2502,0,0,0,0,0,0,0,0,0,0,0,0,0,0.1792,0.1615,0.1979,0.2038,0.2045,0.22,0.2204,0.2207,0.2261,0.2258,0.2256,0.2254,0.2481,0.2492,0.2503,0.2616,0,0,0.2538,0.2542,0,0,0,0,0,0,0,0,0.1781,0.1805,0.2026,0.2034,0.2042,0.22,0.2156,0.2345,0.2261,0.2179,0.2256,0.2253,0.2393,0.2412,0.2458,0.2627,0.2637,0.2539,0.2545,0.255,0.2553,0,0,0,0,0,0,0,0.1768,0.1796,0.2067,0.2029,0.2039,0.2054,0.2078,0.2192,0.2296,0.2186,0.219,0.2216,0.2397,0.2447,0.2464,0.2641,0.2538,0.2548,0.2555,0.256,0.2911,0.2913,0,0,0,0,0,0,0.1745,0.1785,0.206,0.2074,0.1904,0.2062,0.2089,0.2152,0.2295,0.2314,0.2217,0.2217,0.2429,0.2451,0.2472,0.2613,0.255,0.2561,0.2567,0.2908,0.2911,0.2914,0,0,0,0,0,0,0.1736,0.1769,0.2051,0.1931,0.1968,0.2071,0.2141,0.2158,0.2207,0.2318,0.2337,0.2249,0.2428,0.2457,0.2579,0.2622,0.2566,0.2576,0.2905,0.2909,0.2913,0.2896,0,0,0,0,0,0,0.1725,0.1765,0.1809,0.1931,0.1974,0.2154,0.2144,0.2163,0.2226,0.2228,0.2353,0.2372,0.2429,0.2562,0.259,0.2637,0.2585,0.2902,0.2907,0.2911,0.2894,0.2899,0.2904,0,0,0,0,0,0.1712,0.1798,0.1811,0.1844,0.2031,0.2157,0.2181,0.2244,0.2229,0.2275,0.2345,0.2368,0.2612,0.2574,0.2607,0.2657,0.29,0.2905,0.2911,0.2891,0.2898,0.2904,0,0,0,0,0,0,0.1682,0.1815,0.1832,0.1959,0.2046,0.2165,0.2225,0.2249,0.2343,0.2342,0.2416,0.2444,0.2561,0.2621,0.2577,0.2772,0.2756,0.2768,0.2729,0.2737,0.2742,0.2726,0.2594,0,0,0,0,0,0.1689,0.1779,0.1891,0.1993,0.2035,0.2122,0.2179,0.2219,0.2313,0.235,0.243,0.2521,0.2617,0.268,0.2776,0.2901,0.2929,0.2951,0.2956,0.296,0.2971,0.304,0.3051,0.2933,0.2933,0.2933,0,0,0.1708,0.1791,0.1844,0.1989,0.2061,0.2152,0.2153,0.2251,0.232,0.2366,0.2486,0.2547,0.2653,0.2777,0.2836,0.283,0.3009,0.2967,0.297,0.2979,0.3047,0.3058,0.3068,0.2937,0.2936,0.2936,0,0,0.1787,0.1859,0.1951,0.2021,0.2129,0.2185,0.2207,0.2322,0.2364,0.2485,0.252,0.2603,0.2769,0.2842,0.2901,0.3002,0.3026,0.3031,0.3059,0.3126,0.3135,0.3144,0.3179,0.3191,0.3041,0.3041,0.3041,0,0.1797,0.1936,0.1996,0.2091,0.2153,0.2195,0.2288,0.2354,0.2488,0.253,0.2521,0.2728,0.2802,0.2943,0.2967,0.3013,0.304,0.3019,0.3128,0.3138,0.3147,0.3182,0.3195,0.3041,0.3041,0.3041,0.3041,0,0.1942,0.2036,0.2098,0.2222,0.2291,0.2385,0.2459,0.2522,0.2554,0.2611,0.2732,0.2822,0.2935,0.2971,0.3005,0.3116,0.3109,0.3113,0.3099,0.3157,0.3191,0.3205,0.3041,0.3041,0.3041,0.3041,0,0,0.2015,0.2166,0.2188,0.2244,0.2362,0.2437,0.2531,0.264,0.2691,0.2781,0.2862,0.2998,0.3002,0.3068,0.311,0.3168,0.3241,0.3165,0.3169,0.3176,0.3368,0.3365,0.3379,0.3256,0.3259,0.3261,0.3359,0,0.211,0.2278,0.2332,0.2473,0.2561,0.2599,0.2681,0.2763,0.2817,0.29,0.296,0.3056,0.3053,0.3093,0.3152,0.322,0.3281,0.3213,0.3333,0.3337,0.3307,0.3397,0.3396,0.3484,0.3372,0.3375,0.3377,0,0.2245,0.2332,0.248,0.2584,0.2623,0.2696,0.2797,0.2876,0.2968,0.3003,0.3075,0.3111,0.321,0.3187,0.3324,0.3277,0.3329,0.3369,0.3374,0.3389,0.3362,0.3416,0.3514,0.3527,0.3398,0.3396,0.3395,0,0.2283,0.2438,0.2546,0.2592,0.2716,0.2766,0.282,0.291,0.297,0.3059,0.3098,0.3198,0.3253,0.3329,0.3391,0.3368,0.3523,0.3505,0.3555,0.3554,0.3589,0.3586,0.3697,0.3619,0.3619,0.3619,0.3618,0,0.2385,0.2474,0.2564,0.2631,0.2731,0.2792,0.289,0.2947,0.3025,0.3104,0.3142,0.3215,0.3291,0.3374,0.3423,0.3529,0.3553,0.3585,0.3597,0.3583,0.3579,0.3619,0.3616,0.3622,0.3621,0.3621,0.362,0,0.2447,0.251,0.263,0.2735,0.2763,0.2833,0.2923,0.2989,0.3043,0.3141,0.3168,0.3253,0.3352,0.3419,0.3547,0.358,0.3695,0.3705,0.3663,0.3669,0.3716,0.3711,0.3859,0.3881,0.3786,0.3787,0.3788,0,0.2509,0.2578,0.2688,0.2742,0.2795,0.2882,0.2942,0.3003,0.3064,0.3171,0.3224,0.3325,0.3409,0.3565,0.3639,0.3735,0.375,0.3794,0.3765,0.3747,0.3751,0.3747,0.3754,0.38,0.3801,0.3801,0.3802,0,0.2612,0.2639,0.2723,0.2817,0.2886,0.2964,0.3043,0.3085,0.3159,0.3226,0.3326,0.339,0.3518,0.3617,0.372,0.3777,0.3802,0.3809,0.3826,0.3814,0.3786,0.3802,0.3677,0.3807,0.3806,0.3806,0.3806,0.3805,0.2678,0.2739,0.2825,0.2917,0.298,0.3051,0.3117,0.3176,0.326,0.3368,0.3398,0.3502,0.3589,0.3729,0.3786,0.3868,0.3865,0.3889,0.3896,0.3902,0.3901,0.377,0.3887,0.3887,0.3887,0.3887,0.3887,0,0.2784,0.2839,0.2922,0.3028,0.3099,0.3111,0.3197,0.3257,0.3347,0.3425,0.3505,0.3618,0.3713,0.3791,0.389,0.394,0.3954,0.3964,0.3962,0.3974,0.3899,0.3875,0.3951,0.3951,0.3951,0.3951,0.3951,0.3951,0.2848,0.2952,0.2987,0.3123,0.3179,0.3278,0.3326,0.3391,0.3453,0.3577,0.3655,0.3704,0.3782,0.3885,0.3972,0.3993,0.4028,0.4035,0.4059,0.3987,0.398,0.3973,0.3951,0.4042,0.4042,0.4128,0.4128,0.4129]}]]